[[{"header":{"parameterUnit":"m.s-1","parameterCategory":2,"la1":30.2991,"la2":30.254,"lo1":-89.0895,"lo2":-89.0444,"dy":0.0017,"dx":0.0017,"nx":28,"ny":28,"refTime":"2023-07-31T03:00:00:Z","depth":"0","parameterNumber":2,"parameterNumberName":"U-component_of_CURRENTS"},"data":[0,0,0,0,0,0,0,0,0,0,0,0,0,0,0,0,0,0,0,0,0,0,0,0,0,0,0,0,0,0,0,0,0,0,0,0,0,0,0,0,0,0,0,0,0,0,0,0,0,0,0,0,0,0,0,0,0,0,0.4456,0.4457,0,0.45,0.4501,0.4501,0.4506,0.4506,0.4506,0.4506,0.4449,0.4448,0.4446,0,0,0,0,0,0,0,0,0,0,0,0,0,0.4404,0.4405,0.4456,0.4457,0.4458,0.45,0.4501,0.4501,0.4506,0.4506,0.4506,0.4506,0.445,0.4448,0.4446,0,0,0,0,0,0,0,0,0,0,0,0,0,0.4432,0.4405,0.4456,0.4468,0.447,0.45,0.4501,0.4501,0.4506,0.4506,0.4506,0.4506,0.445,0.4448,0.4446,0.4436,0,0,0.444,0.4439,0,0,0,0,0,0,0,0,0.443,0.4433,0.4465,0.4467,0.4469,0.4501,0.4462,0.4476,0.4507,0.4489,0.4506,0.4506,0.4459,0.4457,0.4462,0.4434,0.4431,0.4439,0.4438,0.4437,0.4437,0,0,0,0,0,0,0,0.4428,0.4432,0.447,0.4466,0.4469,0.4482,0.4485,0.4465,0.447,0.449,0.4492,0.4502,0.4459,0.4464,0.446,0.4431,0.444,0.4438,0.4436,0.4436,0.456,0.4565,0,0,0,0,0,0,0.4429,0.443,0.4469,0.4472,0.4453,0.4483,0.4486,0.4488,0.4472,0.4472,0.4503,0.4503,0.4468,0.4463,0.4458,0.4582,0.4437,0.4435,0.4434,0.4556,0.4561,0.4566,0,0,0,0,0,0,0.4427,0.4431,0.4467,0.4455,0.4461,0.4484,0.4486,0.4489,0.4509,0.4483,0.448,0.4521,0.4467,0.4461,0.4489,0.4575,0.4434,0.4432,0.455,0.4558,0.4564,0.4742,0,0,0,0,0,0,0.4425,0.443,0.4428,0.4455,0.4462,0.4509,0.4487,0.449,0.4516,0.4517,0.4498,0.4492,0.4467,0.4493,0.4487,0.4569,0.4431,0.4545,0.4554,0.4562,0.4731,0.4755,0.4775,0,0,0,0,0,0.4423,0.4434,0.4427,0.4432,0.4458,0.4511,0.4516,0.4529,0.4518,0.4542,0.4546,0.4493,0.4545,0.4494,0.4487,0.457,0.454,0.4551,0.4561,0.4721,0.475,0.4774,0,0,0,0,0,0,0.4403,0.4437,0.443,0.4446,0.4483,0.4514,0.4533,0.454,0.4561,0.4562,0.4528,0.4525,0.4601,0.4555,0.45,0.4638,0.4543,0.4552,0.4668,0.4694,0.4716,0.482,0.4429,0,0,0,0,0,0.4398,0.4422,0.4452,0.4468,0.4485,0.4508,0.4527,0.4546,0.457,0.4579,0.4569,0.4581,0.4636,0.4636,0.4661,0.47,0.4756,0.4759,0.4781,0.48,0.4885,0.5062,0.5109,0.46,0.46,0.46,0,0,0.439,0.4417,0.4425,0.4467,0.4489,0.4565,0.452,0.4569,0.4652,0.4567,0.4653,0.4655,0.4669,0.4753,0.478,0.4719,0.4966,0.4813,0.4829,0.4906,0.5078,0.5128,0.5172,0.4607,0.4606,0.4605,0,0,0.4443,0.4416,0.4478,0.4519,0.4576,0.46,0.4621,0.4663,0.4697,0.4761,0.4771,0.4849,0.4838,0.493,0.4961,0.5119,0.5091,0.5087,0.5263,0.5432,0.5477,0.5517,0.5614,0.5662,0.508,0.5081,0.5081,0,0.4444,0.4519,0.4504,0.4593,0.4648,0.4629,0.4732,0.4771,0.4824,0.4882,0.481,0.496,0.4962,0.5157,0.5233,0.5179,0.5232,0.515,0.5465,0.5506,0.5544,0.5635,0.5685,0.509,0.5089,0.5088,0.5087,0,0.4565,0.4626,0.4666,0.4776,0.4828,0.4902,0.4962,0.5015,0.5023,0.5069,0.5221,0.5241,0.5337,0.5354,0.5343,0.562,0.5555,0.5485,0.54,0.5607,0.5687,0.5737,0.5105,0.5101,0.5098,0.5096,0,0,0.4592,0.4729,0.4747,0.4837,0.4933,0.5,0.5131,0.5263,0.5369,0.5402,0.5567,0.5695,0.5684,0.5732,0.5727,0.5887,0.6186,0.5811,0.5815,0.5915,0.6525,0.6328,0.6361,0.6156,0.6166,0.6174,0.6458,0,0.4708,0.4913,0.4941,0.513,0.5248,0.527,0.5396,0.5507,0.5559,0.5693,0.5772,0.5903,0.5828,0.5883,0.6042,0.6167,0.6331,0.6115,0.6308,0.6315,0.6122,0.6419,0.6004,0.6212,0.6506,0.6514,0.652,0,0.4842,0.4974,0.5183,0.5352,0.5397,0.5487,0.5675,0.5781,0.5947,0.599,0.6119,0.6144,0.6407,0.6283,0.6631,0.6483,0.656,0.663,0.6639,0.6451,0.6214,0.6062,0.6289,0.6061,0.6595,0.6589,0.6583,0,0.494,0.5136,0.5313,0.5375,0.5559,0.5645,0.5723,0.5879,0.6001,0.6193,0.6297,0.6503,0.6642,0.6806,0.6902,0.6806,0.725,0.7104,0.7006,0.6987,0.6681,0.6618,0.6727,0.741,0.741,0.7409,0.7408,0,0.5085,0.524,0.5363,0.5472,0.5669,0.574,0.594,0.6029,0.6201,0.6374,0.6452,0.6637,0.6796,0.6996,0.7051,0.7188,0.7361,0.7153,0.7107,0.6719,0.6659,0.6475,0.6391,0.7419,0.7417,0.7415,0.7413,0,0.5232,0.5307,0.5515,0.568,0.5732,0.5873,0.6048,0.6178,0.632,0.6555,0.6636,0.6851,0.7078,0.7179,0.7459,0.7377,0.7291,0.7507,0.7002,0.6892,0.6508,0.6447,0.6449,0.6282,0.747,0.7468,0.7466,0,0.5352,0.5472,0.5643,0.572,0.5798,0.5983,0.6094,0.6241,0.6362,0.6676,0.6792,0.7067,0.7179,0.7452,0.7383,0.743,0.7247,0.709,0.6858,0.6544,0.6446,0.625,0.6096,0.6508,0.6498,0.649,0.6484,0,0.5569,0.5592,0.5718,0.5857,0.5968,0.6112,0.6254,0.6364,0.654,0.6689,0.6889,0.7003,0.7191,0.7011,0.7033,0.702,0.6684,0.6928,0.6771,0.59,0.5538,0.5325,0.6225,0.6414,0.6421,0.6426,0.643,0.6433,0.5677,0.577,0.5842,0.5933,0.6062,0.6128,0.614,0.6273,0.6391,0.6425,0.6751,0.6689,0.6618,0.6545,0.6517,0.6115,0.6246,0.5847,0.5863,0.5746,0.5401,0.6133,0.6145,0.615,0.6154,0.6158,0.6162,0,0.5749,0.579,0.5896,0.5947,0.5963,0.6049,0.6139,0.604,0.601,0.6117,0.6156,0.5915,0.5687,0.5601,0.5278,0.5049,0.4861,0.4911,0.4541,0.4495,0.528,0.5044,0.4609,0.4609,0.461,0.461,0.461,0.461,0.5791,0.5824,0.5796,0.5746,0.5764,0.5673,0.5624,0.5504,0.5478,0.5173,0.493,0.4926,0.4913,0.4697,0.4357,0.426,0.3994,0.3758,0.3921,0.4414,0.45,0.4582,0.434,0.3766,0.3765,0.2846,0.2839,0.2834]},{"header":{"parameterUnit":"m.s-1","parameterCategory":2,"la1":30.2991,"la2":30.254,"lo1":-89.0895,"lo2":-89.0444,"dy":0.0017,"dx":0.0017,"nx":28,"ny":28,"refTime":"2023-07-31T03:00:00:Z","depth":"0","parameterNumber":3,"parameterNumberName":"V-component_of_CURRENTS"},"data":[0,0,0,0,0,0,0,0,0,0,0,0,0,0,0,0,0,0,0,0,0,0,0,0,0,0,0,0,0,0,0,0,0,0,0,0,0,0,0,0,0,0,0,0,0,0,0,0,0,0,0,0,0,0,0,0,0,0,0.0152,0.0151,0,0.0093,0.0092,0.0091,0.0035,0.0034,0.0034,0.0033,-0.0045,-0.0047,-0.0048,0,0,0,0,0,0,0,0,0,0,0,0,0,0.0163,0.0164,0.0152,0.0151,0.0151,0.0093,0.0092,0.0091,0.0035,0.0034,0.0033,0.0033,-0.0045,-0.0047,-0.0049,0,0,0,0,0,0,0,0,0,0,0,0,0,0.0135,0.0164,0.0152,0.0117,0.0113,0.0093,0.0092,0.0091,0.0035,0.0034,0.0033,0.0033,-0.0044,-0.0046,-0.0049,-0.0046,0,0,-0.0056,-0.0057,0,0,0,0,0,0,0,0,0.0137,0.0135,0.0123,0.0119,0.0115,0.0072,0.0067,0.0044,0.0035,0.0063,0.0033,0.0032,-0.0006,-0.0012,-0.0023,-0.005,-0.0053,-0.0056,-0.0058,-0.0059,-0.0059,0,0,0,0,0,0,0,0.0139,0.0137,0.0127,0.0122,0.0118,0.0086,0.0082,0.0062,0.0032,0.006,0.0057,0.0053,-0.0009,-0.0021,-0.0025,-0.0055,-0.0056,-0.0058,-0.006,-0.0061,-0.0076,-0.0075,0,0,0,0,0,0,0.0154,0.0139,0.0129,0.0125,0.0126,0.0087,0.0082,0.0085,0.0033,0.0024,0.0054,0.0051,-0.0016,-0.0023,-0.0028,0.001,-0.0059,-0.0061,-0.0062,-0.0077,-0.0076,-0.0075,0,0,0,0,0,0,0.0154,0.0154,0.0131,0.0131,0.0126,0.0088,0.0092,0.0084,0.0074,0.0028,0.0019,0.0052,-0.0017,-0.0025,-0.004,0.0005,-0.0062,-0.0064,-0.0078,-0.0077,-0.0075,0.0061,0,0,0,0,0,0,0.0155,0.0154,0.0161,0.0133,0.0127,0.0143,0.0093,0.0084,0.0074,0.0069,0.0024,0.0015,-0.0018,-0.0036,-0.0042,0.0,-0.0066,-0.008,-0.0078,-0.0076,0.0056,0.0067,0.0077,0,0,0,0,0,0.0156,0.0185,0.0162,0.016,0.0138,0.0145,0.014,0.0107,0.0075,0.009,0.0046,0.0017,-0.0029,-0.0037,-0.0045,-0.0002,-0.008,-0.0078,-0.0076,0.0051,0.0065,0.0077,0,0,0,0,0,0,0.0198,0.0181,0.0155,0.0177,0.0167,0.0136,0.0144,0.0115,0.0091,0.0079,0.0026,0.0016,0.0023,-0.0016,-0.0024,-0.0004,-0.0058,-0.0057,0.0041,0.0054,0.0065,0.012,-0.0068,0,0,0,0,0,0.0209,0.0226,0.0199,0.022,0.0213,0.0175,0.017,0.0149,0.0124,0.0111,0.0079,0.0042,0.0027,0.0018,-0.0005,0.0006,0.0009,0.0027,0.0038,0.0047,0.0086,0.0129,0.015,-0.0068,-0.0068,-0.0068,0,0,0.023,0.0225,0.0232,0.023,0.0212,0.0226,0.0171,0.0176,0.0191,0.0108,0.0117,0.008,0.0035,0.0049,0.0049,0.0024,0.0107,0.005,0.0059,0.0093,0.0134,0.0156,0.0175,-0.0066,-0.0066,-0.0067,0,0,0.0296,0.0276,0.031,0.0306,0.0293,0.0271,0.0277,0.0249,0.024,0.0238,0.0188,0.0188,0.0142,0.0144,0.0131,0.0189,0.0163,0.0164,0.0272,0.0313,0.0333,0.035,0.0377,0.0396,0.0172,0.0173,0.0173,0,0.032,0.0351,0.0324,0.0353,0.0353,0.0298,0.0328,0.032,0.0294,0.0304,0.0258,0.024,0.0202,0.0246,0.0264,0.0223,0.0228,0.0229,0.0333,0.035,0.0365,0.0389,0.0408,0.0179,0.0179,0.0178,0.0177,0,0.0408,0.0422,0.0444,0.0456,0.0462,0.0478,0.0457,0.0465,0.0432,0.0423,0.045,0.0405,0.0402,0.0387,0.0342,0.0432,0.0394,0.0344,0.0312,0.0397,0.0414,0.0432,0.0189,0.0187,0.0185,0.0183,0,0,0.0477,0.0499,0.0504,0.0516,0.0509,0.0525,0.0558,0.0578,0.0615,0.0591,0.0653,0.0629,0.0609,0.0595,0.0549,0.0586,0.0689,0.052,0.0519,0.057,0.0779,0.0692,0.0702,0.0655,0.0659,0.0662,0.0747,0,0.0543,0.0611,0.0607,0.0662,0.068,0.0653,0.0696,0.0711,0.0708,0.0757,0.074,0.0772,0.0686,0.0697,0.0725,0.0713,0.0742,0.0671,0.0671,0.0671,0.0603,0.0722,0.0662,0.0728,0.0763,0.0766,0.0768,0,0.0616,0.0651,0.0716,0.0749,0.0759,0.0791,0.084,0.0876,0.0928,0.0934,0.0969,0.0946,0.1019,0.0914,0.0969,0.0926,0.0872,0.0844,0.0845,0.0738,0.0618,0.0646,0.0757,0.0484,0.0794,0.0792,0.079,0,0.0661,0.0718,0.077,0.078,0.0822,0.0857,0.0885,0.0933,0.1002,0.1067,0.1139,0.1161,0.1229,0.1181,0.1119,0.1056,0.1166,0.1062,0.0929,0.0921,0.086,0.084,0.0732,0.1092,0.1092,0.1091,0.1091,0,0.0715,0.0758,0.0796,0.0825,0.0908,0.0916,0.1022,0.1049,0.115,0.1292,0.1248,0.1387,0.1305,0.1339,0.1219,0.1161,0.1246,0.0997,0.0959,0.09,0.0883,0.063,0.0504,0.1095,0.1094,0.1093,0.1093,0,0.0759,0.0776,0.0845,0.0904,0.0928,0.0994,0.1117,0.1217,0.1286,0.1481,0.1527,0.1618,0.1682,0.1558,0.1519,0.1325,0.1094,0.1171,0.1099,0.105,0.0621,0.0506,0.0411,0.032,0.1051,0.1049,0.1048,0,0.0794,0.0829,0.0908,0.0974,0.1007,0.1106,0.1201,0.1278,0.1412,0.1653,0.1785,0.1891,0.2031,0.1913,0.1597,0.1373,0.1121,0.1081,0.0934,0.0633,0.0479,0.0379,0.0303,0.0909,0.0906,0.0905,0.0903,0,0.0865,0.0886,0.0948,0.1076,0.1175,0.1304,0.1447,0.1573,0.1734,0.1934,0.2231,0.2368,0.2247,0.2036,0.1642,0.1428,0.0869,0.1032,0.0764,0.0414,0.0264,0.0145,0.0796,0.0887,0.0889,0.089,0.0891,0.0892,0.0924,0.0985,0.1069,0.1192,0.1324,0.1508,0.1646,0.1856,0.2118,0.2469,0.2566,0.2848,0.2372,0.1872,0.1527,0.073,0.0797,0.0448,0.0357,0.0299,0.0143,0.0747,0.075,0.0751,0.0751,0.0752,0.0752,0,0.0994,0.1063,0.1189,0.1346,0.1516,0.1561,0.1825,0.2018,0.2369,0.2735,0.302,0.2943,0.2366,0.1715,0.0649,0.0123,-0.0046,-0.0164,-0.0325,-0.0351,0.0223,0.0139,-0.0043,-0.0043,-0.0042,-0.0042,-0.0042,-0.0041,0.1035,0.1144,0.1202,0.1469,0.1608,0.1857,0.2018,0.2338,0.2642,0.3083,0.3283,0.3391,0.2776,0.0964,-0.0273,-0.0537,-0.0849,-0.0933,-0.104,-0.0706,-0.0657,-0.0611,-0.0723,-0.1082,-0.1083,-0.16,-0.1605,-0.1609]}],[{"header":{"parameterUnit":"m.s-1","parameterCategory":2,"la1":30.2991,"la2":30.254,"lo1":-89.0895,"lo2":-89.0444,"dy":0.0017,"dx":0.0017,"nx":28,"ny":28,"refTime":"2023-07-31T03:00:00:Z","depth":"2","parameterNumber":2,"parameterNumberName":"U-component_of_CURRENTS"},"data":[0,0,0,0,0,0,0,0,0,0,0,0,0,0,0,0,0,0,0,0,0,0,0,0,0,0,0,0,0,0,0,0,0,0,0,0,0,0,0,0,0,0,0,0,0,0,0,0,0,0,0,0,0,0,0,0,0,0,0.3252,0.3253,0,0.3316,0.3316,0.3316,0.3311,0.3311,0.3311,0.331,0.3334,0.3335,0.3336,0,0,0,0,0,0,0,0,0,0,0,0,0,0.3182,0.3183,0.3251,0.3253,0.3254,0.3316,0.3316,0.3316,0.3311,0.3311,0.3311,0.331,0.3334,0.3335,0.3336,0,0,0,0,0,0,0,0,0,0,0,0,0,0.3219,0.3183,0.3251,0.3264,0.3267,0.3316,0.3316,0.3316,0.3312,0.3311,0.3311,0.331,0.3334,0.3335,0.3336,0.3355,0,0,0.3341,0.3341,0,0,0,0,0,0,0,0,0.3217,0.3221,0.3261,0.3264,0.3266,0.3311,0.3301,0.333,0.3312,0.3287,0.331,0.331,0.3328,0.333,0.3334,0.3356,0.3357,0.3341,0.3342,0.3342,0.3343,0,0,0,0,0,0,0,0.3214,0.3219,0.327,0.3263,0.3266,0.3288,0.3291,0.3306,0.3303,0.3289,0.3291,0.3309,0.3328,0.3332,0.3334,0.3358,0.3341,0.3342,0.3343,0.3344,0.3455,0.3457,0,0,0,0,0,0,0.3218,0.3216,0.3268,0.3273,0.3248,0.329,0.3293,0.3292,0.3304,0.3308,0.331,0.3309,0.333,0.3332,0.3335,0.343,0.3342,0.3344,0.3344,0.3453,0.3456,0.3458,0,0,0,0,0,0,0.3216,0.3221,0.3266,0.3252,0.326,0.3292,0.329,0.3293,0.3316,0.3321,0.3323,0.3332,0.333,0.3333,0.3363,0.3428,0.3344,0.3346,0.3451,0.3454,0.3457,0.3573,0,0,0,0,0,0,0.3213,0.3219,0.3234,0.3252,0.3262,0.3305,0.3291,0.3295,0.3331,0.3331,0.3341,0.3341,0.333,0.3361,0.3364,0.3428,0.3347,0.3448,0.3452,0.3456,0.3567,0.358,0.3591,0,0,0,0,0,0.321,0.3231,0.3233,0.3241,0.3274,0.3307,0.3314,0.333,0.3333,0.3347,0.3355,0.3342,0.3389,0.3363,0.3367,0.3433,0.3446,0.3451,0.3456,0.3561,0.3577,0.3591,0,0,0,0,0,0,0.3207,0.3234,0.3236,0.3263,0.3289,0.3309,0.334,0.3346,0.3364,0.3372,0.3362,0.3364,0.3422,0.3404,0.3376,0.3476,0.3419,0.3425,0.3499,0.3514,0.3526,0.3575,0.3348,0,0,0,0,0,0.3214,0.3228,0.326,0.3277,0.3302,0.3324,0.3346,0.3357,0.3375,0.3383,0.3394,0.3411,0.3443,0.3457,0.3475,0.3522,0.3557,0.3568,0.358,0.3591,0.3633,0.372,0.3745,0.3474,0.3474,0.3473,0,0,0.3218,0.3234,0.3244,0.3278,0.3303,0.3349,0.3334,0.3378,0.3426,0.3385,0.3451,0.3458,0.3465,0.3524,0.3549,0.3517,0.369,0.3597,0.3606,0.3643,0.3728,0.3755,0.3779,0.3477,0.3476,0.3476,0,0,0.3244,0.3251,0.3287,0.3317,0.3368,0.3381,0.34,0.344,0.3471,0.353,0.3523,0.3572,0.3603,0.3633,0.365,0.3743,0.3756,0.3741,0.3844,0.3927,0.3951,0.3972,0.407,0.4099,0.3742,0.3743,0.3743,0,0.3259,0.3285,0.3303,0.3355,0.3382,0.34,0.3448,0.3496,0.3539,0.3583,0.3568,0.3665,0.3671,0.3762,0.3802,0.3779,0.3826,0.3785,0.3947,0.3968,0.3989,0.4083,0.4113,0.3749,0.3748,0.3748,0.3747,0,0.331,0.3345,0.3372,0.343,0.3466,0.3502,0.3566,0.362,0.3656,0.3704,0.381,0.3826,0.3886,0.3897,0.3888,0.4029,0.4018,0.3956,0.3914,0.4024,0.4115,0.4145,0.3758,0.3756,0.3754,0.3752,0,0,0.3312,0.339,0.3404,0.3438,0.35,0.3534,0.363,0.3716,0.3797,0.3869,0.3971,0.4058,0.4079,0.4102,0.4093,0.4173,0.4362,0.414,0.4141,0.4249,0.4575,0.44,0.4415,0.4325,0.433,0.4335,0.4589,0,0.3346,0.3405,0.346,0.354,0.3562,0.3631,0.3706,0.3799,0.3882,0.3991,0.4071,0.4168,0.4153,0.4192,0.4278,0.4331,0.4445,0.4301,0.4445,0.4451,0.4289,0.4444,0.4046,0.4223,0.4618,0.4623,0.4627,0,0.3378,0.3401,0.3455,0.355,0.3581,0.3644,0.3759,0.3853,0.4017,0.4093,0.4221,0.4284,0.4443,0.4391,0.4606,0.4514,0.4588,0.4627,0.4635,0.4457,0.433,0.4173,0.4262,0.4676,0.4672,0.4669,0.4666,0,0.3303,0.3414,0.3435,0.3466,0.3577,0.3644,0.3721,0.3868,0.3982,0.4177,0.4276,0.4441,0.4552,0.4664,0.4768,0.4715,0.498,0.4897,0.4826,0.4815,0.4498,0.4448,0.509,0.509,0.5089,0.5089,0.5088,0,0.3273,0.3313,0.3405,0.3426,0.3491,0.3598,0.3741,0.3838,0.4025,0.4156,0.4329,0.4469,0.4635,0.4788,0.4847,0.4935,0.5057,0.4907,0.4883,0.4524,0.4476,0.4865,0.4835,0.5098,0.5096,0.5094,0.5093,0,0.3171,0.3233,0.33,0.342,0.3454,0.3513,0.3738,0.3866,0.4028,0.4202,0.4279,0.4562,0.4769,0.4895,0.5097,0.5037,0.5119,0.512,0.4695,0.4615,0.4892,0.4866,0.5098,0.5094,0.5091,0.5088,0.5086,0,0.3129,0.3105,0.3264,0.3319,0.3381,0.3504,0.3607,0.3821,0.3951,0.4243,0.4311,0.4605,0.4743,0.4981,0.4964,0.5034,0.5146,0.4683,0.4496,0.4948,0.4902,0.488,0.4859,0.4152,0.4142,0.4134,0.4128,0,0.3033,0.309,0.3143,0.3226,0.3347,0.3509,0.3651,0.37,0.3944,0.4079,0.4276,0.4417,0.4659,0.4568,0.464,0.4618,0.4618,0.4521,0.5144,0.4173,0.4064,0.4015,0.4024,0.4057,0.4064,0.4069,0.4073,0.4076,0.2982,0.2981,0.3078,0.3153,0.3309,0.3454,0.3449,0.359,0.3709,0.3751,0.4042,0.4101,0.4199,0.4131,0.4037,0.3978,0.4298,0.4088,0.4109,0.414,0.3947,0.3834,0.3751,0.3756,0.3761,0.3765,0.3768,0,0.2922,0.2948,0.3012,0.3111,0.3234,0.338,0.3458,0.3376,0.3347,0.347,0.3562,0.3349,0.3324,0.3458,0.3249,0.3235,0.3182,0.3114,0.3008,0.3082,0.3147,0.2899,0.2428,0.2424,0.242,0.2416,0,0,0.2906,0.2951,0.2978,0.3082,0.3125,0.3113,0.3101,0.2963,0.2951,0.2829,0.2836,0.311,0.3313,0.2805,0.275,0.2551,0.2785,0.2451,0.3531,0.3478,0.3537,0.3724,0.3427,0,0,0,0,0]},{"header":{"parameterUnit":"m.s-1","parameterCategory":2,"la1":30.2991,"la2":30.254,"lo1":-89.0895,"lo2":-89.0444,"dy":0.0017,"dx":0.0017,"nx":28,"ny":28,"refTime":"2023-07-31T03:00:00:Z","depth":"2","parameterNumber":3,"parameterNumberName":"V-component_of_CURRENTS"},"data":[0,0,0,0,0,0,0,0,0,0,0,0,0,0,0,0,0,0,0,0,0,0,0,0,0,0,0,0,0,0,0,0,0,0,0,0,0,0,0,0,0,0,0,0,0,0,0,0,0,0,0,0,0,0,0,0,0,0,0.0053,0.0052,0,-0.0001,-0.0002,-0.0002,-0.0035,-0.0035,-0.0035,-0.0035,-0.0099,-0.0101,-0.0103,0,0,0,0,0,0,0,0,0,0,0,0,0,0.0081,0.0081,0.0053,0.0052,0.0052,-0.0001,-0.0002,-0.0003,-0.0035,-0.0035,-0.0035,-0.0035,-0.0099,-0.0101,-0.0103,0,0,0,0,0,0,0,0,0,0,0,0,0,0.0051,0.0081,0.0053,0.003,0.0027,-0.0001,-0.0002,-0.0003,-0.0035,-0.0035,-0.0035,-0.0035,-0.0098,-0.0101,-0.0103,-0.0115,0,0,-0.011,-0.0111,0,0,0,0,0,0,0,0,0.0053,0.005,0.0034,0.0031,0.0028,-0.0011,-0.0015,-0.0041,-0.0035,-0.0012,-0.0035,-0.0035,-0.007,-0.0075,-0.0086,-0.0118,-0.0121,-0.0111,-0.0112,-0.0113,-0.0114,0,0,0,0,0,0,0,0.0055,0.0052,0.0031,0.0033,0.003,0.0006,0.0002,-0.0021,-0.0041,-0.0014,-0.0017,-0.0021,-0.0072,-0.0083,-0.0087,-0.0122,-0.0111,-0.0113,-0.0114,-0.0115,-0.0165,-0.0165,0,0,0,0,0,0,0.0066,0.0054,0.0032,0.0029,0.0041,0.0006,0.0001,0.0001,-0.004,-0.0046,-0.0021,-0.0023,-0.0079,-0.0084,-0.009,-0.0084,-0.0113,-0.0115,-0.0117,-0.0165,-0.0165,-0.0165,0,0,0,0,0,0,0.0067,0.0065,0.0035,0.0041,0.0035,0.0006,0.0006,0.0,-0.0007,-0.0045,-0.0052,-0.0022,-0.0079,-0.0086,-0.0101,-0.0088,-0.0116,-0.0119,-0.0165,-0.0165,-0.0165,-0.0088,0,0,0,0,0,0,0.0068,0.0066,0.0069,0.0042,0.0035,0.0033,0.0006,-0.0001,-0.0009,-0.0012,-0.0048,-0.0054,-0.008,-0.0097,-0.0103,-0.0092,-0.0121,-0.0165,-0.0165,-0.0165,-0.0091,-0.0085,-0.008,0,0,0,0,0,0.0069,0.0082,0.007,0.0067,0.0042,0.0034,0.003,0.0007,-0.0009,-0.0002,-0.003,-0.0053,-0.01,-0.0098,-0.0106,-0.0095,-0.0166,-0.0165,-0.0165,-0.0093,-0.0086,-0.008,0,0,0,0,0,0,0.0094,0.0079,0.0065,0.0072,0.0059,0.003,0.003,0.0013,-0.0006,-0.0011,-0.0048,-0.0056,-0.0066,-0.0093,-0.009,-0.0111,-0.0138,-0.0139,-0.008,-0.0075,-0.0069,-0.0036,-0.0123,0,0,0,0,0,0.0102,0.011,0.0087,0.0093,0.0088,0.0059,0.0051,0.0037,0.0016,0.0007,-0.0018,-0.0049,-0.0073,-0.0082,-0.0108,-0.0115,-0.0135,-0.0115,-0.011,-0.0105,-0.0085,-0.011,-0.0105,-0.0164,-0.0164,-0.0164,0,0,0.0113,0.0106,0.0109,0.01,0.0085,0.0093,0.0055,0.0051,0.006,0.0003,0.0007,-0.0032,-0.0072,-0.008,-0.0087,-0.0098,-0.0101,-0.0105,-0.01,-0.0082,-0.0109,-0.0103,-0.0098,-0.0164,-0.0164,-0.0164,0,0,0.0149,0.0133,0.0154,0.015,0.0137,0.0119,0.0122,0.0097,0.0089,0.0081,0.0042,0.0018,-0.0019,-0.0039,-0.0057,-0.004,-0.0075,-0.0056,0.0003,-0.0023,-0.0017,-0.0013,-0.003,-0.0028,-0.005,-0.005,-0.005,0,0.0163,0.0187,0.0159,0.0179,0.0188,0.0137,0.0167,0.0147,0.0123,0.0129,0.0094,0.0045,0.0003,0.0003,0.0004,-0.0025,-0.0044,-0.0015,-0.0013,-0.001,-0.0006,-0.0026,-0.0024,-0.0046,-0.0047,-0.0047,-0.0047,0,0.0217,0.0235,0.0247,0.026,0.0263,0.0278,0.0253,0.0251,0.0224,0.0208,0.0196,0.0132,0.0112,0.0082,0.0047,0.0051,0.0029,-0.0005,-0.0022,0.0005,-0.0018,-0.0018,-0.0041,-0.0042,-0.0043,-0.0044,0,0,0.0259,0.0283,0.029,0.0321,0.0311,0.0327,0.0337,0.0346,0.0378,0.0317,0.0352,0.0275,0.0239,0.0216,0.0161,0.013,0.0122,0.0079,0.0076,0.0075,0.0075,0.0013,0.0007,0.0087,0.0088,0.0088,0.0051,0,0.0314,0.0384,0.0376,0.0441,0.0476,0.0446,0.0474,0.0472,0.0457,0.0474,0.0392,0.0397,0.0291,0.0291,0.0236,0.0161,0.0126,0.0136,0.0039,0.0036,-0.0012,0.0006,0.0043,0.0009,0.0051,0.0051,0.0051,0,0.0375,0.0419,0.0498,0.0559,0.0572,0.0604,0.0656,0.0674,0.0667,0.066,0.0625,0.0565,0.0513,0.0418,0.029,0.0302,0.0201,0.0124,0.012,0.004,-0.0026,-0.0014,0.0007,0.0051,0.0051,0.0051,0.0051,0,0.0441,0.0508,0.0582,0.0599,0.0649,0.0691,0.0722,0.074,0.0796,0.0792,0.0835,0.0728,0.0718,0.0559,0.0373,0.0344,0.023,0.0171,0.0017,0.0011,0.0014,0.0007,0.0085,0.0085,0.0085,0.0086,0.0086,0,0.0508,0.0567,0.0626,0.0669,0.0791,0.0784,0.0899,0.092,0.0969,0.1076,0.0947,0.1007,0.0755,0.0648,0.0442,0.0234,0.028,0.004,0.0,0.0039,0.0035,0.0046,0.0042,0.0084,0.0084,0.0085,0.0085,0,0.0563,0.0592,0.0693,0.0779,0.0827,0.0915,0.1045,0.1119,0.1154,0.1293,0.1309,0.1237,0.11,0.0825,0.0589,0.0358,0.0145,0.0058,0.0117,0.0083,-0.0074,-0.0073,-0.0108,-0.011,-0.0112,-0.0114,-0.0116,0,0.0594,0.0649,0.0794,0.0889,0.094,0.1066,0.1159,0.1219,0.1336,0.1455,0.1553,0.1454,0.1413,0.1006,0.0594,0.0215,0.0162,-0.0014,-0.0082,-0.0056,-0.0092,-0.0089,-0.0086,-0.0042,-0.0043,-0.0044,-0.0044,0,0.0663,0.0712,0.0821,0.1023,0.1148,0.1291,0.1454,0.1583,0.168,0.1787,0.1933,0.1899,0.1517,0.1129,0.0573,0.0312,0.0035,-0.0041,-0.0003,-0.0014,-0.0002,-0.0035,-0.0033,-0.0049,-0.0049,-0.0049,-0.0048,-0.0048,0.0735,0.0834,0.0988,0.1183,0.1329,0.1527,0.1675,0.1847,0.2046,0.2209,0.2179,0.2097,0.1663,0.0933,0.0499,0.0014,0.0022,-0.0164,-0.0158,-0.0152,-0.0153,-0.0148,-0.0221,-0.0221,-0.0222,-0.0222,-0.0222,0,0.0819,0.0942,0.1134,0.1381,0.1553,0.1613,0.187,0.2006,0.2247,0.2323,0.2373,0.1937,0.1506,0.1013,0.0301,-0.0125,-0.0144,-0.0259,-0.0179,-0.0172,-0.0165,-0.0165,-0.0237,-0.0238,-0.0239,-0.024,0,0,0.088,0.1055,0.1159,0.1502,0.1686,0.1916,0.2059,0.2254,0.2359,0.2404,0.2316,0.216,0.161,0.109,0.054,0.0157,0.0084,0.0072,0.0125,0.0291,0.0303,-0.0075,-0.0062,0,0,0,0,0]}],[{"header":{"parameterUnit":"m.s-1","parameterCategory":2,"la1":30.2991,"la2":30.254,"lo1":-89.0895,"lo2":-89.0444,"dy":0.0017,"dx":0.0017,"nx":28,"ny":28,"refTime":"2023-07-31T03:00:00:Z","depth":"4","parameterNumber":2,"parameterNumberName":"U-component_of_CURRENTS"},"data":[0,0,0,0,0,0,0,0,0,0,0,0,0,0,0,0,0,0,0,0,0,0,0,0,0,0,0,0,0,0,0,0,0,0,0,0,0,0,0,0,0,0,0,0,0,0,0,0,0,0,0,0,0,0,0,0,0,0,0.1897,0.1897,0,0.1964,0.1964,0.1965,0.2028,0.2029,0.203,0.2031,0.2116,0.2117,0.2118,0,0,0,0,0,0,0,0,0,0,0,0,0,0.1803,0.1804,0.1896,0.1898,0.1899,0.1963,0.1964,0.1965,0.2028,0.2029,0.2031,0.2032,0.2115,0.2117,0.2118,0,0,0,0,0,0,0,0,0,0,0,0,0,0.1851,0.1805,0.1896,0.194,0.1945,0.1963,0.1964,0.1965,0.2028,0.2029,0.2031,0.2032,0.2115,0.2117,0.2119,0.2099,0,0,0.2124,0.2125,0,0,0,0,0,0,0,0,0.1849,0.1854,0.1933,0.1937,0.1943,0.1992,0.1962,0.2012,0.2027,0.1993,0.2031,0.2033,0.2077,0.2082,0.2086,0.2102,0.2106,0.2125,0.2126,0.2127,0.2127,0,0,0,0,0,0,0,0.1845,0.1852,0.192,0.1934,0.194,0.195,0.1958,0.1972,0.2023,0.1996,0.2002,0.2013,0.2079,0.2084,0.2089,0.2107,0.2124,0.2126,0.2127,0.2128,0.2244,0.2246,0,0,0,0,0,0,0.1842,0.1849,0.1918,0.1922,0.1902,0.195,0.196,0.1972,0.2023,0.2033,0.2012,0.2016,0.208,0.2087,0.2092,0.2189,0.2126,0.2128,0.2129,0.2242,0.2244,0.2246,0,0,0,0,0,0,0.184,0.1848,0.1915,0.1889,0.1899,0.1951,0.1964,0.1972,0.2029,0.2035,0.2045,0.2065,0.2082,0.209,0.2145,0.2189,0.2129,0.2131,0.2239,0.2242,0.2245,0.2308,0,0,0,0,0,0,0.1837,0.1846,0.1873,0.1889,0.1901,0.1953,0.1963,0.1973,0.2032,0.2039,0.2083,0.209,0.2084,0.2143,0.2147,0.219,0.2132,0.2237,0.2241,0.2244,0.2303,0.2312,0.232,0,0,0,0,0,0.1833,0.1855,0.1873,0.1883,0.1929,0.1954,0.1962,0.2001,0.2033,0.2058,0.2095,0.2091,0.2169,0.2146,0.2151,0.2195,0.2235,0.224,0.2244,0.2299,0.2311,0.232,0,0,0,0,0,0,0.1833,0.1864,0.1885,0.1919,0.1949,0.1967,0.2001,0.2029,0.2077,0.2097,0.2111,0.2119,0.218,0.2182,0.2156,0.224,0.2204,0.2209,0.2244,0.2255,0.2263,0.2281,0.2134,0,0,0,0,0,0.1843,0.187,0.1898,0.1931,0.1951,0.1987,0.2013,0.2036,0.2071,0.2097,0.2133,0.2168,0.2191,0.2222,0.2235,0.2285,0.2304,0.232,0.2328,0.2335,0.2355,0.2422,0.2439,0.226,0.226,0.226,0,0,0.1853,0.1875,0.1894,0.1934,0.1964,0.1996,0.2008,0.2054,0.2092,0.2096,0.2177,0.2196,0.2209,0.2258,0.2288,0.2276,0.2395,0.2341,0.2347,0.2362,0.2428,0.2446,0.2461,0.2263,0.2263,0.2262,0,0,0.1862,0.191,0.1926,0.1961,0.201,0.203,0.2056,0.2103,0.2142,0.2198,0.2217,0.2273,0.2313,0.2339,0.2351,0.242,0.243,0.243,0.25,0.2565,0.258,0.2594,0.2635,0.2652,0.2445,0.2445,0.2445,0,0.1875,0.1893,0.1938,0.1966,0.1998,0.2054,0.2079,0.2126,0.219,0.2227,0.2235,0.2328,0.2348,0.2413,0.2446,0.2441,0.2475,0.2456,0.2577,0.2591,0.2604,0.2642,0.266,0.2449,0.2448,0.2448,0.2448,0,0.1889,0.1916,0.1936,0.1989,0.2036,0.2066,0.2131,0.2196,0.2251,0.2291,0.2378,0.2409,0.2471,0.2487,0.2492,0.2599,0.259,0.257,0.2549,0.2626,0.2661,0.2678,0.2454,0.2452,0.2451,0.2451,0,0,0.1861,0.1924,0.1934,0.1952,0.2046,0.2073,0.2166,0.2237,0.2305,0.238,0.2461,0.2526,0.257,0.259,0.2612,0.2683,0.2805,0.2686,0.2688,0.2724,0.295,0.2749,0.2749,0.2815,0.2819,0.2822,0.2935,0,0.1847,0.1872,0.1926,0.1974,0.1989,0.2088,0.2171,0.2264,0.234,0.2443,0.2512,0.2601,0.26,0.2656,0.2723,0.2787,0.2857,0.2776,0.2873,0.2876,0.2687,0.2764,0.2833,0.2948,0.2952,0.2955,0.2957,0,0.183,0.1843,0.187,0.1946,0.1972,0.2035,0.2171,0.2257,0.2419,0.2489,0.2598,0.2662,0.2798,0.278,0.2933,0.2888,0.2938,0.2975,0.2979,0.2784,0.2707,0.2859,0.2988,0.2986,0.2983,0.2981,0.2979,0,0.1746,0.1803,0.1814,0.1845,0.1955,0.2015,0.2111,0.2274,0.2365,0.2554,0.2631,0.2771,0.2872,0.2956,0.3048,0.3017,0.3197,0.3148,0.3007,0.2993,0.3111,0.3096,0.326,0.326,0.326,0.326,0.3259,0,0.1678,0.1689,0.1782,0.1788,0.185,0.1977,0.2079,0.2208,0.2397,0.251,0.2666,0.2758,0.2933,0.3044,0.3093,0.3102,0.3235,0.3036,0.3016,0.3133,0.3118,0.3123,0.3106,0.3264,0.3263,0.3262,0.3261,0,0.1561,0.1622,0.1636,0.1749,0.1803,0.1863,0.2062,0.2133,0.2347,0.2502,0.2584,0.2806,0.2956,0.3076,0.3236,0.3143,0.3184,0.3156,0.3289,0.3272,0.2921,0.2906,0.299,0.2984,0.2979,0.2974,0.2971,0,0.1486,0.1478,0.1591,0.1618,0.1669,0.1783,0.1863,0.2093,0.2183,0.2499,0.2553,0.279,0.2909,0.2962,0.3101,0.3167,0.3136,0.3112,0.2998,0.2925,0.2899,0.2892,0.2884,0.2963,0.2962,0.296,0.2959,0,0.1329,0.1391,0.1419,0.1479,0.155,0.1618,0.1762,0.1828,0.2108,0.2302,0.2481,0.2591,0.2746,0.2859,0.2942,0.2977,0.3094,0.3058,0.3067,0.296,0.2894,0.2871,0.2869,0.2941,0.2944,0.2945,0.2946,0,0.1229,0.1222,0.1281,0.1341,0.1398,0.1443,0.1542,0.1678,0.1823,0.2195,0.225,0.2506,0.2732,0.2764,0.2838,0.286,0.2804,0.2683,0.271,0.2731,0.2591,0.2466,0.2382,0,0,0,0,0,0.1135,0.1136,0.1142,0.1191,0.1231,0.1296,0.1464,0.1582,0.1858,0.1926,0.2101,0.225,0.2398,0.2523,0.2496,0.2693,0.279,0.2642,0.2655,0.2844,0.2864,0.2722,0,0,0,0,0,0,0.1066,0.1079,0.1096,0.1049,0.1064,0.1109,0.1222,0.1414,0.1478,0.1775,0.1874,0.2083,0.226,0.2401,0.2448,0.2482,0.2433,0.2805,0.2798,0.2832,0.2851,0.2867,0.2728,0,0,0,0,0]},{"header":{"parameterUnit":"m.s-1","parameterCategory":2,"la1":30.2991,"la2":30.254,"lo1":-89.0895,"lo2":-89.0444,"dy":0.0017,"dx":0.0017,"nx":28,"ny":28,"refTime":"2023-07-31T03:00:00:Z","depth":"4","parameterNumber":3,"parameterNumberName":"V-component_of_CURRENTS"},"data":[0,0,0,0,0,0,0,0,0,0,0,0,0,0,0,0,0,0,0,0,0,0,0,0,0,0,0,0,0,0,0,0,0,0,0,0,0,0,0,0,0,0,0,0,0,0,0,0,0,0,0,0,0,0,0,0,0,0,0.007,0.007,0,0.0038,0.0037,0.0037,0.0018,0.0018,0.0018,0.0018,-0.0023,-0.0024,-0.0025,0,0,0,0,0,0,0,0,0,0,0,0,0,0.0086,0.0086,0.007,0.007,0.0069,0.0038,0.0037,0.0037,0.0018,0.0018,0.0018,0.0018,-0.0023,-0.0024,-0.0026,0,0,0,0,0,0,0,0,0,0,0,0,0,0.0069,0.0086,0.007,0.0056,0.0055,0.0038,0.0037,0.0037,0.0018,0.0018,0.0018,0.0018,-0.0023,-0.0024,-0.0026,-0.0034,0,0,-0.0031,-0.0031,0,0,0,0,0,0,0,0,0.007,0.0068,0.0059,0.0057,0.0056,0.0032,0.0028,0.0013,0.0018,0.0032,0.0018,0.0018,-0.0005,-0.0008,-0.0015,-0.0036,-0.0038,-0.0031,-0.0032,-0.0032,-0.0033,0,0,0,0,0,0,0,0.0071,0.0069,0.0057,0.0058,0.0056,0.0042,0.004,0.0025,0.0013,0.003,0.0029,0.0026,-0.0006,-0.0013,-0.0016,-0.0038,-0.0031,-0.0032,-0.0033,-0.0034,-0.0071,-0.0071,0,0,0,0,0,0,0.0077,0.007,0.0058,0.0056,0.0063,0.0042,0.0039,0.0039,0.0014,0.001,0.0026,0.0025,-0.001,-0.0014,-0.0017,-0.0015,-0.0032,-0.0034,-0.0035,-0.0071,-0.0071,-0.0071,0,0,0,0,0,0,0.0078,0.0077,0.0059,0.0062,0.0059,0.0042,0.0042,0.0039,0.0035,0.0011,0.0007,0.0026,-0.0011,-0.0015,-0.0024,-0.0017,-0.0035,-0.0036,-0.0071,-0.0071,-0.0071,-0.0019,0,0,0,0,0,0,0.0078,0.0077,0.008,0.0063,0.0059,0.0058,0.0042,0.0038,0.0033,0.0032,0.0009,0.0005,-0.0011,-0.0021,-0.0025,-0.0019,-0.0037,-0.0071,-0.0071,-0.0071,-0.002,-0.0017,-0.0014,0,0,0,0,0,0.0079,0.0086,0.0081,0.0079,0.0064,0.0059,0.0056,0.0042,0.0034,0.0037,0.0021,0.0006,-0.0025,-0.0022,-0.0027,-0.0022,-0.0071,-0.0071,-0.0071,-0.0022,-0.0017,-0.0014,0,0,0,0,0,0,0.0093,0.0084,0.0078,0.0081,0.0074,0.0056,0.0056,0.0046,0.0035,0.0033,0.0009,0.0005,-0.0003,-0.0021,-0.0017,-0.0034,-0.0052,-0.0053,-0.0013,-0.0009,-0.0006,0.0018,-0.0039,0,0,0,0,0,0.0098,0.0103,0.009,0.0094,0.009,0.0074,0.0069,0.0061,0.0048,0.0043,0.0028,0.0008,-0.0008,-0.0014,-0.0032,-0.0037,-0.007,-0.004,-0.0036,-0.0033,-0.0018,-0.0068,-0.0068,-0.0071,-0.0071,-0.0071,0,0,0.0103,0.01,0.0102,0.0097,0.0089,0.0098,0.0071,0.0068,0.0079,0.004,0.0047,0.0019,-0.0008,-0.0014,-0.0019,-0.0026,-0.0052,-0.0033,-0.003,-0.0017,-0.0068,-0.0068,-0.0068,-0.0071,-0.0071,-0.0071,0,0,0.0127,0.0115,0.0132,0.0131,0.0124,0.0114,0.0117,0.0102,0.0097,0.0095,0.0069,0.0047,0.0027,0.0009,-0.0003,0.0006,-0.0035,-0.0003,0.0036,-0.0013,-0.0013,-0.0013,-0.0064,-0.0069,-0.0,-0.0,0.0,0,0.0136,0.016,0.0135,0.0154,0.0166,0.0127,0.0156,0.014,0.0126,0.0128,0.0105,0.0067,0.0039,0.0033,0.0036,0.0015,-0.002,0.0026,-0.0008,-0.0009,-0.001,-0.0062,-0.0068,0.0002,0.0002,0.0002,0.0002,0,0.0175,0.0198,0.0207,0.0223,0.0226,0.0242,0.0224,0.0221,0.0203,0.0188,0.0173,0.0124,0.0106,0.0084,0.0065,0.0047,0.0022,0.0001,-0.0014,-0.0007,-0.0062,-0.0069,0.0006,0.0005,0.0004,0.0004,0,0,0.0197,0.0232,0.0238,0.0273,0.0271,0.0284,0.0292,0.0299,0.0315,0.0267,0.0281,0.0229,0.0192,0.0176,0.0134,0.0089,0.004,0.0049,0.0046,0.0007,-0.007,-0.0078,-0.0088,0.0011,0.0011,0.001,-0.0109,0,0.0245,0.0313,0.031,0.0375,0.0413,0.039,0.0413,0.0406,0.038,0.0375,0.0303,0.0295,0.0229,0.0222,0.0162,0.0077,0.0024,0.0074,-0.0077,-0.0082,-0.0084,-0.0095,0.0008,-0.0115,-0.0116,-0.0118,-0.0119,0,0.0293,0.0339,0.0418,0.0483,0.0496,0.0527,0.056,0.0574,0.054,0.052,0.0472,0.0408,0.0341,0.028,0.0123,0.0158,0.0055,-0.0026,-0.0033,-0.0058,-0.0103,-0.0124,-0.0133,-0.0132,-0.0131,-0.013,-0.0129,0,0.0347,0.0417,0.0493,0.0513,0.0567,0.0606,0.0636,0.0628,0.0658,0.0616,0.0615,0.0505,0.0465,0.0315,0.0132,0.0131,-0.0052,-0.0079,-0.0188,-0.019,-0.017,-0.0168,-0.0189,-0.0189,-0.0189,-0.0189,-0.0188,0,0.0405,0.0466,0.0533,0.0578,0.0676,0.0688,0.0778,0.0774,0.0788,0.0823,0.0704,0.0689,0.0472,0.0332,0.0159,-0.004,-0.004,-0.0178,-0.0219,-0.0147,-0.0142,-0.0176,-0.0173,-0.0193,-0.0192,-0.0191,-0.0191,0,0.0444,0.0487,0.0585,0.0673,0.0708,0.0782,0.089,0.0944,0.094,0.0975,0.097,0.0831,0.0641,0.0403,0.0155,0.0012,-0.0185,-0.0256,-0.0163,-0.0197,-0.0299,-0.0292,-0.0383,-0.0384,-0.0385,-0.0386,-0.0386,0,0.0469,0.0523,0.0654,0.0727,0.0776,0.0891,0.0971,0.1019,0.1073,0.1059,0.1074,0.091,0.0782,0.0427,0.017,-0.0173,-0.022,-0.032,-0.031,-0.0287,-0.0318,-0.0309,-0.0301,-0.0388,-0.0388,-0.0389,-0.0389,0,0.0514,0.0562,0.0644,0.0798,0.0907,0.103,0.1145,0.1194,0.1235,0.1228,0.1163,0.0965,0.0745,0.0442,0.0168,-0.0075,-0.0254,-0.0331,-0.0331,-0.0323,-0.0295,-0.0322,-0.0313,-0.0392,-0.0392,-0.0392,-0.0391,0,0.0542,0.0607,0.0725,0.0861,0.0997,0.1127,0.119,0.1256,0.1309,0.1276,0.1253,0.1005,0.0862,0.0493,0.0245,-0.0005,-0.0066,-0.0133,-0.0144,-0.0143,-0.0045,0.0027,-0.0002,0,0,0,0,0,0.0569,0.065,0.0779,0.0936,0.1073,0.1157,0.1281,0.1329,0.1357,0.1325,0.1295,0.1085,0.0713,0.0553,0.0302,0.0208,-0.0121,-0.0093,-0.0206,-0.0412,-0.0408,-0.0336,0,0,0,0,0,0,0.0591,0.0705,0.078,0.0973,0.1078,0.1238,0.1318,0.1344,0.133,0.1309,0.1115,0.1024,0.0657,0.0847,0.0294,0.0218,0.0115,-0.0268,-0.0273,-0.0414,-0.0411,-0.0407,-0.0332,0,0,0,0,0]}]]